Theta_e
345 342 343 343 345 347 344 340 344 343 343 344 344 345 341 343 345 338 339 340 339 339 340 338 339 343 343 340 343 343 344 344 344 345 346 345 342 342 342 343 342 341 340
349 342 340 341 344 346 347 347 347 347 347 347 346 346 344 342 343 343 341 339 338 336 339 338 338 340 342 342 338 343 344 344 343 344 344 344 343 342 342 342 343 341 341
348 347 347 347 347 347 348 348 347 347 347 347 346 346 345 345 344 343 341 341 339 337 336 338 339 339 340 339 342 343 343 341 342 343 344 343 343 343 341 343 343 342 341
350 349 346 348 349 349 349 349 349 348 347 347 345 342 343 343 343 341 342 342 341 341 340 341 339 339 339 339 340 342 342 339 340 342 343 343 344 342 344 342 342 342 342
349 349 349 348 349 347 348 349 350 349 349 346 341 346 346 346 342 340 341 342 338 341 341 341 339 339 339 342 339 340 341 339 339 337 342 343 345 343 343 343 343 343 340
350 349 349 349 349 349 349 348 349 349 347 340 345 348 346 345 346 343 341 343 342 338 337 343 341 339 338 339 340 339 341 341 340 334 339 342 343 343 342 343 342 340 340
350 348 350 349 350 349 349 348 349 347 341 339 347 348 347 347 346 346 344 341 342 343 343 344 344 342 339 338 338 338 339 340 341 341 335 341 343 343 344 344 343 341 342
350 350 350 350 350 350 349 348 349 349 349 348 349 346 347 345 343 345 346 346 345 343 344 344 345 344 344 343 340 339 339 338 341 340 340 337 343 344 343 343 343 343 344
351 350 350 350 349 349 349 350 349 349 349 348 348 348 348 347 342 344 345 346 346 346 345 347 347 346 346 344 343 341 339 337 338 342 344 339 335 341 341 339 341 342 343
351 351 350 349 350 350 350 349 348 350 350 350 350 349 348 345 349 350 346 347 345 345 345 345 347 346 346 346 345 342 341 339 337 338 339 339 340 335 334 334 337 339 340
350 350 351 350 351 351 351 352 351 349 351 351 350 350 350 349 348 347 349 346 347 347 346 344 345 346 347 346 346 344 342 341 340 337 338 338 341 340 336 333 333 330 329
350 350 350 350 350 350 350 350 351 351 351 351 351 352 350 350 348 346 346 346 346 348 347 347 348 348 348 347 346 345 343 343 342 342 339 338 339 342 343 341 334 329 327
352 352 351 350 350 349 350 350 350 349 349 351 352 351 350 351 351 350 347 348 348 348 348 349 349 350 349 349 348 347 345 345 344 342 342 339 338 338 340 343 345 341 335
350 352 352 351 351 351 351 349 346 341 347 349 350 351 351 351 351 351 350 349 351 349 348 349 350 350 350 349 349 349 348 348 347 344 342 341 339 338 338 338 342 345 344
351 351 352 351 351 350 349 342 340 339 337 341 348 349 351 351 352 351 350 350 349 351 352 348 350 350 350 350 349 349 349 349 348 346 344 342 340 338 338 336 339 342 343
349 353 352 352 351 349 349 347 339 339 339 341 347 349 351 352 352 351 352 351 350 349 353 350 350 351 351 351 352 350 350 350 350 349 346 344 343 340 338 338 337 335 337
351 350 352 354 353 352 349 347 343 341 344 346 349 350 351 352 353 353 352 351 351 350 350 351 351 351 351 352 352 351 351 351 351 349 348 346 344 344 341 338 338 337 337
356 354 353 353 353 353 352 344 344 346 348 346 347 350 350 350 350 352 351 352 351 351 350 351 351 352 352 352 353 352 352 352 351 350 345 346 346 346 345 343 341 340 339
359 359 359 359 359 357 354 352 341 342 343 342 342 345 345 348 350 349 350 351 351 351 350 349 349 351 353 353 353 353 353 352 351 351 346 343 345 346 346 344 343 342 342
361 361 362 361 361 358 355 353 341 340 343 340 337 341 340 344 346 348 351 352 352 352 350 349 348 350 353 353 353 353 352 353 351 351 351 344 342 345 342 343 343 343 343
361 363 363 362 361 359 356 350 344 341 341 340 339 338 346 341 338 345 349 350 351 352 352 348 348 351 352 353 354 354 353 353 352 350 350 350 345 342 345 344 336 339 344
361 363 362 360 358 354 353 348 346 344 343 345 345 345 333 335 334 342 348 351 352 353 351 349 350 352 353 353 355 354 353 351 353 352 351 350 350 348 343 339 343 342 342
360 359 356 353 349 347 346 349 354 351 348 347 341 333 339 339 335 338 344 344 344 346 350 352 352 351 352 354 356 354 353 353 352 352 351 350 350 349 349 348 348 347 345
356 356 355 355 354 355 353 343 338 339 340 336 332 337 334 339 338 337 343 346 348 348 348 349 346 347 350 354 356 357 355 353 353 353 353 353 351 350 350 350 350 349 348
351 350 350 350 350 349 347 348 348 335 331 331 332 328 326 329 341 338 337 348 344 341 339 340 346 348 349 354 355 354 354 353 354 352 352 352 350 350 350 351 351 350 349
332 333 333 333 335 343 349 353 353 345 331 329 330 330 331 333 340 341 340 350 338 333 334 333 338 343 339 351 354 355 354 354 355 352 351 349 346 350 352 350 349 348 349
Wind_Speed
6 7 7 7 7 6 6 7 6 6 7 9 11 11 9 6 6 8 8 6 6 4 3 0 2 2 3 3 4 4 5 8 9 9 10 10 11 11 11 12 13 13 13
8 7 8 8 8 7 8 8 9 10 10 11 10 10 10 9 9 8 10 9 7 4 1 4 4 4 4 4 4 4 4 4 7 10 11 11 12 12 11 11 13 14 13
10 9 9 10 10 11 11 12 13 11 13 12 12 11 12 12 11 14 15 12 12 13 10 9 7 6 5 4 6 6 6 4 4 8 11 11 12 12 12 12 14 13 14
12 13 12 12 11 12 14 17 17 16 13 12 11 12 12 14 13 11 12 18 17 18 16 11 10 6 6 7 8 7 7 7 6 7 8 9 12 12 12 14 14 14 13
13 16 17 16 14 15 15 15 18 15 14 14 14 13 13 14 15 16 14 12 18 21 20 17 15 15 10 10 11 10 10 8 8 8 9 10 11 12 12 13 14 14 13
16 16 16 15 14 14 16 15 15 16 15 14 16 17 17 18 17 18 18 16 16 22 22 20 19 20 17 14 13 15 13 12 10 9 11 11 13 13 14 15 14 13 14
18 18 17 17 16 15 14 14 14 15 15 17 13 15 19 19 19 20 21 21 20 20 22 22 22 25 23 20 17 20 18 15 14 13 12 12 13 14 13 13 14 16 15
20 20 19 20 18 16 13 13 14 14 12 13 7 4 3 6 4 8 14 20 22 21 22 23 23 24 25 24 22 22 21 22 17 17 15 14 15 15 14 14 14 14 15
20 22 21 20 19 18 18 17 16 16 16 11 13 7 1 2 6 3 7 9 14 18 20 20 20 21 21 23 23 24 27 27 23 21 20 18 18 19 18 17 18 18 18
20 23 23 21 21 20 20 20 18 18 17 19 14 13 16 8 1 4 2 10 12 15 15 18 21 21 22 23 22 24 24 27 29 27 26 23 20 20 20 19 20 21 21
20 22 26 25 23 22 23 21 20 19 18 20 20 14 12 14 17 10 6 6 13 15 18 13 17 21 21 22 24 23 23 26 29 32 30 26 24 23 21 20 21 21 21
21 25 26 27 27 22 22 22 21 22 24 23 23 21 19 11 7 10 7 9 9 20 17 18 16 17 17 18 22 22 22 23 27 31 33 33 30 27 24 22 22 22 22
22 24 23 27 28 27 25 24 24 21 20 22 26 27 25 25 24 18 13 10 6 12 11 20 13 11 12 12 15 19 24 24 25 27 32 33 34 33 28 26 24 23 23
26 25 26 25 25 25 25 25 22 19 22 23 23 25 27 26 25 24 19 11 4 6 9 7 8 5 5 7 9 11 15 19 22 27 29 34 34 36 34 31 29 27 24
31 27 28 25 22 19 21 20 25 24 19 20 24 21 25 25 24 24 23 23 11 3 4 5 4 3 2 3 5 10 13 13 15 21 28 31 35 34 36 35 33 30 27
31 29 29 27 25 26 26 24 26 31 25 20 19 21 22 25 24 23 23 24 21 15 5 7 7 8 7 9 8 10 12 11 13 14 20 29 32 36 36 36 37 35 32
31 30 29 26 25 27 27 25 27 23 24 15 15 19 22 25 23 24 23 23 24 21 12 14 15 12 10 11 9 11 13 14 12 12 16 22 29 33 37 38 37 37 35
27 28 25 26 27 25 26 22 18 15 12 8 12 17 24 23 24 24 23 24 24 24 19 20 20 17 13 10 10 12 12 13 13 11 11 15 22 30 35 35 36 38 39
26 23 20 21 23 21 21 22 19 19 16 11 10 13 20 20 22 23 24 22 23 22 23 22 24 18 12 10 10 11 12 12 13 12 11 11 13 21 27 26 31 31 32
24 22 22 22 22 21 21 20 21 23 24 22 22 20 20 23 24 26 25 22 20 20 17 12 24 24 15 13 12 11 13 13 13 13 12 12 11 16 21 22 23 28 32
21 20 22 22 22 22 21 21 20 24 25 26 25 25 27 23 20 19 18 21 20 19 19 16 20 15 14 12 13 12 15 12 12 14 15 16 16 17 22 24 16 18 28
17 18 20 21 21 21 22 21 22 22 25 23 25 23 20 21 19 16 14 14 17 21 21 21 16 16 18 20 18 16 15 8 5 12 17 18 19 22 23 24 30 29 28
13 15 19 19 21 20 19 20 21 21 21 19 17 15 17 18 14 16 15 15 17 15 23 22 19 28 28 25 20 17 18 14 11 9 13 10 14 19 21 22 23 24 25
10 12 15 16 19 20 18 15 16 18 17 17 15 11 13 18 14 12 13 16 14 11 9 8 15 34 32 25 21 17 16 18 17 15 14 8 14 17 14 16 15 17 19
11 12 13 16 18 20 16 15 17 16 17 18 17 16 16 19 17 15 17 15 14 17 9 10 9 29 26 22 18 17 16 13 10 10 18 9 10 15 12 13 13 15 18
13 15 17 16 17 20 17 16 16 16 20 20 19 21 21 20 18 15 16 14 17 21 17 17 9 24 23 20 14 16 18 16 12 5 15 13 13 10 4 8 9 10 15
Wind_Direction
205 203 191 192 187 187 195 205 223 238 254 273 275 275 285 249 218 196 179 192 184 166 116 33 287 228 202 224 225 212 213 213 202 200 192 194 186 188 177 174 174 174 173
225 208 206 206 213 223 227 231 244 259 272 281 290 273 287 269 246 222 203 208 207 220 249 288 271 263 265 241 240 225 218 220 216 205 202 197 197 192 189 189 188 182 180
227 226 231 232 241 250 253 251 250 259 267 269 273 270 280 279 276 247 245 231 223 222 235 261 251 255 235 249 253 252 223 233 200 206 207 200 197 195 192 191 188 187 185
245 237 246 248 255 257 265 263 258 258 262 267 279 277 287 279 275 265 250 252 236 226 240 260 236 232 254 259 255 252 242 244 221 207 205 208 198 197 196 194 192 188 186
252 249 254 259 266 262 270 277 253 258 266 269 267 277 283 280 271 266 268 271 237 234 249 252 240 247 254 250 251 244 248 237 230 215 209 209 202 200 190 189 187 185 186
249 248 254 261 259 266 262 266 259 254 261 271 282 278 279 285 272 260 258 258 250 242 251 251 243 242 245 246 241 238 236 238 233 228 212 208 209 205 199 193 190 189 188
251 252 257 250 257 267 272 257 256 257 260 262 287 287 293 290 274 259 255 252 253 253 254 251 245 238 241 244 244 233 232 229 231 232 219 210 207 198 187 187 190 192 196
256 257 258 258 264 265 260 255 253 257 265 262 240 283 318 332 343 288 262 252 254 255 255 253 250 248 241 244 238 230 228 227 228 229 226 212 205 204 201 197 196 193 189
259 260 267 271 271 263 267 268 265 258 263 270 251 241 290 276 325 292 311 278 262 261 261 261 260 254 247 241 239 233 232 234 230 227 225 220 215 216 219 214 208 207 206
260 261 264 266 268 268 272 277 275 271 269 272 275 256 245 255 275 316 301 310 284 274 276 274 270 264 254 243 238 235 232 230 229 225 223 223 223 218 219 216 210 207 209
263 265 262 260 264 266 270 276 277 271 269 268 265 263 260 256 258 241 288 288 293 291 295 283 287 270 258 248 240 234 233 231 230 228 228 225 223 223 219 216 210 208 207
267 267 265 263 265 273 275 276 279 279 276 272 269 268 256 240 230 224 245 273 273 308 304 290 288 283 265 242 240 239 235 233 231 230 227 224 222 221 216 215 213 211 211
270 277 271 263 264 263 266 263 261 262 273 277 277 272 270 264 261 259 256 274 270 297 297 304 293 277 261 251 241 235 235 235 233 231 227 225 223 221 220 218 213 212 213
275 279 280 274 264 261 261 269 265 272 264 263 267 272 271 270 266 264 250 259 283 268 285 283 290 275 244 240 235 225 229 230 231 231 228 225 225 224 221 222 220 216 217
276 275 273 275 272 260 263 264 284 276 274 277 266 265 269 271 270 268 267 264 233 290 285 282 259 206 195 229 224 223 225 230 228 229 230 225 223 224 226 225 222 220 221
276 277 275 275 274 270 271 269 266 280 275 262 249 264 270 273 273 269 267 266 251 231 261 252 261 257 250 281 250 235 233 231 239 237 234 226 224 224 224 225 226 227 228
279 276 273 272 275 270 269 274 290 279 258 235 247 261 273 278 278 277 273 265 257 242 235 267 268 265 267 265 256 237 238 238 242 242 235 227 226 226 226 226 226 227 231
279 277 276 275 274 272 274 273 283 274 285 308 285 284 283 287 285 280 274 272 265 261 240 259 268 262 256 257 259 251 242 240 239 245 242 233 230 226 226 224 229 233 236
277 274 271 270 273 276 275 278 274 277 278 310 312 306 305 295 298 298 282 276 275 273 261 270 274 269 253 250 242 251 244 239 241 245 238 232 231 225 224 220 225 229 234
274 269 266 265 272 275 273 275 274 274 282 296 301 301 300 294 289 279 287 287 285 273 261 245 282 270 249 250 238 234 237 232 231 238 243 231 229 220 209 215 227 232 233
275 270 267 268 268 272 269 273 276 266 282 292 300 297 301 294 288 283 278 277 280 268 253 225 244 254 235 219 221 228 233 234 229 225 232 234 223 215 221 218 208 230 235
267 261 259 264 267 267 271 275 287 281 281 285 290 298 307 306 288 290 290 278 277 263 258 243 241 238 242 237 232 226 225 211 231 218 220 236 228 228 226 229 236 241 242
260 259 264 269 270 269 272 282 291 284 282 283 283 297 315 323 304 295 286 281 275 282 267 258 262 275 258 241 226 222 225 223 222 210 202 227 227 233 243 241 243 242 243
281 278 283 285 284 286 288 290 293 280 271 270 267 278 314 324 310 304 301 295 282 279 272 282 281 274 273 255 231 230 231 236 245 240 224 220 236 235 252 249 247 249 245
315 308 302 296 292 292 292 297 301 277 270 261 255 266 295 309 310 295 293 304 281 277 275 293 272 279 271 268 262 240 211 195 226 238 230 231 243 241 238 247 258 261 252
315 311 307 305 304 301 302 297 295 292 279 274 271 275 282 289 298 292 275 280 277 283 293 295 296 283 286 281 258 253 253 223 216 215 234 207 244 220 237 231 238 249 250